Fredericksburg, TX

10:01 PM CST on February 17, 2018 (GMT -0600)
Fredericksburg

Weather History for KT82 - May, 2013

Change the Weather History Date:

Friday, May 31, 2013

  Actual Average (KSAT) Record (KSAT)
Temperature  
Mean Temperature 80 °F -  
Max Temperature 89 °F 87 °F 104 °F (2004)
Min Temperature 71 °F 68 °F 51 °F (1984)
Cooling Degree Days 15    
Growing Degree Days 30 (Base 50)    
Moisture  
Dew Point 70 °F    
Average Humidity 74    
Maximum Humidity 88    
Minimum Humidity 54    
Precipitation  
Precipitation 0.00 in - - ()
Sea Level Pressure  
Sea Level Pressure 29.86 in    
Wind  
Wind Speed 10 mph (South)    
Max Wind Speed 16 mph    
Max Gust Speed 23 mph    
Visibility 10 miles    
Events      
Averages and records for this station are not official NWS values.
T = Trace of Precipitation, MM = Missing Value Source: NWS Daily Summary

Daily Weather History Graph

Daily Weather History Graph

Search for Another Location

Airport or City:

Trip Planner

Search our weather history database for the weather conditions in past years. The results will help you decide how hot, cold, wet, or windy it might be!

Date:

Astronomy

May. 31, 2013 Rise Set
Actual Time 6:34 AM CDT 8:32 PM CDT
Civil Twilight 6:07 AM CDT 8:59 PM CDT
Nautical Twilight 5:34 AM CDT 9:32 PM CDT
Astronomical Twilight 4:59 AM CDT 10:07 PM CDT
Moon 1:27 AM CDT (5/31) 1:29 PM CDT (5/31)
Length of Visible Light 14h 52m
Length of Day
13h 57m
Waning Gibbous, 51% of the Moon is Illuminated
May 31
Waning Gibbous
May 31
Last Quarter
Jun 8
New
Jun 16
First Quarter
Jun 23
Full

Hourly Weather History & Observations

Time (CDT) Temp. Heat Index Dew Point Humidity Pressure Visibility Wind Dir Wind Speed Gust Speed Precip Events Conditions
12:15 AM 76.1 °F - 70.5 °F 83% 29.87 in 10.0 mi South 9.2 mph - N/A   Overcast
12:35 AM 76.1 °F - 70.7 °F 83% 29.87 in 10.0 mi SSE 8.1 mph - N/A   Overcast
12:55 AM 75.7 °F - 70.7 °F 84% 29.87 in 10.0 mi South 10.4 mph 16.1 mph N/A   Overcast
1:15 AM 75.2 °F - 70.0 °F 84% 29.87 in 10.0 mi South 9.2 mph - N/A   Overcast
1:35 AM 74.8 °F - 70.0 °F 85% 29.87 in 10.0 mi South 6.9 mph - N/A   Overcast
1:55 AM 74.7 °F - 69.8 °F 85% 29.87 in 10.0 mi South 10.4 mph - N/A   Overcast
2:15 AM 74.5 °F - 69.8 °F 85% 29.87 in 10.0 mi South 9.2 mph - N/A   Overcast
2:35 AM 74.3 °F - 69.8 °F 86% 29.87 in 10.0 mi South 6.9 mph - N/A   Overcast
2:55 AM 74.1 °F - 69.8 °F 86% 29.87 in 10.0 mi South 8.1 mph 16.1 mph N/A   Overcast
3:15 AM 73.9 °F - 69.8 °F 87% 29.87 in 10.0 mi South 11.5 mph - N/A   Overcast
3:35 AM 73.9 °F - 69.1 °F 85% 29.86 in 10.0 mi South 9.2 mph - N/A   Overcast
3:55 AM 73.9 °F - 69.4 °F 86% 29.87 in 10.0 mi South 5.8 mph - N/A   Overcast
4:15 AM 73.8 °F - 68.9 °F 85% 29.87 in 10.0 mi South 8.1 mph 16.1 mph N/A   Overcast
4:35 AM 73.6 °F - 68.9 °F 85% 29.87 in 10.0 mi South 13.8 mph - N/A   Overcast
4:55 AM 73.6 °F - 68.5 °F 84% 29.87 in 10.0 mi South 9.2 mph 17.3 mph N/A   Overcast
5:15 AM 73.4 °F - 68.5 °F 85% 29.87 in 10.0 mi South 12.7 mph - N/A   Overcast
5:35 AM 73.4 °F - 68.0 °F 83% 29.87 in 10.0 mi South 11.5 mph - N/A   Overcast
5:55 AM 73.0 °F - 68.0 °F 84% 29.87 in 10.0 mi South 11.5 mph 16.1 mph N/A   Overcast
6:15 AM 72.7 °F - 68.0 °F 85% 29.87 in 10.0 mi South 6.9 mph - N/A   Overcast
6:35 AM 72.1 °F - 68.0 °F 87% 29.88 in 10.0 mi South 8.1 mph - N/A   Mostly Cloudy
6:55 AM 71.6 °F - 67.8 °F 88% 29.88 in 10.0 mi South 8.1 mph - N/A   Scattered Clouds
7:15 AM 71.4 °F - 67.8 °F 88% 29.88 in 10.0 mi South 5.8 mph - N/A   Scattered Clouds
7:35 AM 71.8 °F - 67.8 °F 87% 29.89 in 10.0 mi South 6.9 mph - N/A   Mostly Cloudy
7:55 AM 72.5 °F - 67.8 °F 85% 29.90 in 10.0 mi South 11.5 mph - N/A   Mostly Cloudy
8:15 AM 73.4 °F - 67.5 °F 82% 29.90 in 10.0 mi SSW 10.4 mph - N/A   Scattered Clouds
8:35 AM 74.5 °F - 67.3 °F 78% 29.90 in 10.0 mi SSW 13.8 mph 19.6 mph N/A   Scattered Clouds
8:55 AM 73.8 °F - 67.3 °F 80% 29.91 in 10.0 mi SSW 15.0 mph 21.9 mph N/A   Overcast
9:15 AM 74.1 °F - 67.5 °F 80% 29.91 in 10.0 mi South 12.7 mph 18.4 mph N/A   Overcast
9:35 AM 74.7 °F - 67.6 °F 79% 29.92 in 10.0 mi South 11.5 mph 17.3 mph N/A   Overcast
9:55 AM 75.2 °F - 67.6 °F 77% 29.92 in 10.0 mi South 12.7 mph - N/A   Overcast
10:15 AM 75.7 °F - 68.0 °F 77% 29.91 in 10.0 mi South 12.7 mph 17.3 mph N/A   Overcast
10:35 AM 75.9 °F - 68.4 °F 77% 29.91 in 10.0 mi SSW 11.5 mph - N/A   Overcast
10:55 AM 76.6 °F - 68.4 °F 75% 29.91 in 10.0 mi South 13.8 mph 20.7 mph N/A   Overcast
11:15 AM 77.2 °F - 68.9 °F 76% 29.91 in 10.0 mi South 15.0 mph - N/A   Overcast
11:35 AM 77.5 °F - 68.9 °F 75% 29.91 in 10.0 mi SSW 12.7 mph 19.6 mph N/A   Overcast
11:55 AM 78.1 °F - 69.1 °F 74% 29.91 in 10.0 mi South 13.8 mph 18.4 mph N/A   Overcast
12:15 PM 78.8 °F - 69.6 °F 73% 29.91 in 10.0 mi South 15.0 mph 21.9 mph N/A   Overcast
12:35 PM 79.0 °F - 69.8 °F 73% 29.90 in 10.0 mi SSW 12.7 mph 20.7 mph N/A   Overcast
12:55 PM 79.9 °F - 70.2 °F 72% 29.90 in 10.0 mi South 15.0 mph - N/A   Overcast
1:15 PM 79.7 °F - 70.3 °F 73% 29.90 in 10.0 mi South 11.5 mph 17.3 mph N/A   Overcast
1:35 PM 81.5 °F 85.5 °F 70.7 °F 70% 29.89 in 10.0 mi SSW 13.8 mph 20.7 mph N/A   Overcast
1:55 PM 82.9 °F 87.5 °F 71.1 °F 67% 29.88 in 10.0 mi SW 15.0 mph 19.6 mph N/A   Overcast
2:15 PM 82.9 °F 87.5 °F 71.1 °F 67% 29.87 in 10.0 mi South 10.4 mph 16.1 mph N/A   Overcast
2:35 PM 84.7 °F 90.0 °F 71.2 °F 64% 29.86 in 10.0 mi SW 13.8 mph 20.7 mph N/A   Mostly Cloudy
2:55 PM 85.6 °F 91.1 °F 71.4 °F 62% 29.85 in 10.0 mi SSW 12.7 mph 19.6 mph N/A   Mostly Cloudy
3:15 PM 87.3 °F 92.8 °F 70.9 °F 58% 29.85 in 10.0 mi SSW 16.1 mph 23.0 mph N/A   Mostly Cloudy
3:35 PM 87.8 °F 93.4 °F 70.9 °F 57% 29.84 in 10.0 mi South 15.0 mph 18.4 mph N/A   Mostly Cloudy
3:55 PM 87.1 °F 92.4 °F 70.7 °F 58% 29.84 in 10.0 mi South 15.0 mph 19.6 mph N/A   Overcast
4:15 PM 86.7 °F 92.1 °F 70.7 °F 59% 29.83 in 10.0 mi SSW 15.0 mph 19.6 mph N/A   Scattered Clouds
4:35 PM 88.5 °F 94.0 °F 70.7 °F 55% 29.82 in 10.0 mi SSW 13.8 mph 19.6 mph N/A   Clear
4:55 PM 88.9 °F 94.7 °F 70.7 °F 55% 29.82 in 10.0 mi SSW 12.7 mph 20.7 mph N/A   Scattered Clouds
5:15 PM 87.8 °F 93.0 °F 70.2 °F 56% 29.81 in 10.0 mi SSW 10.4 mph - N/A   Scattered Clouds
5:35 PM 88.5 °F 93.5 °F 70.2 °F 54% 29.80 in 10.0 mi South 12.7 mph - N/A   Scattered Clouds
5:55 PM 88.9 °F 94.2 °F 70.5 °F 54% 29.80 in 10.0 mi SSW 12.7 mph - N/A   Clear
6:15 PM 89.1 °F 94.6 °F 70.5 °F 54% 29.79 in 10.0 mi South 9.2 mph 12.7 mph N/A   Scattered Clouds
6:35 PM 88.2 °F 93.7 °F 70.7 °F 56% 29.79 in 10.0 mi South 11.5 mph 19.6 mph N/A   Scattered Clouds
6:55 PM 88.3 °F 94.1 °F 71.1 °F 56% 29.79 in 10.0 mi South 15.0 mph 18.4 mph N/A   Scattered Clouds
7:15 PM 87.3 °F 93.2 °F 71.2 °F 59% 29.79 in 10.0 mi SSE 13.8 mph 19.6 mph N/A   Scattered Clouds
7:35 PM 86.2 °F 91.4 °F 71.1 °F 60% 29.79 in 10.0 mi SSE 11.5 mph 17.3 mph N/A   Clear
7:55 PM 85.5 °F 90.8 °F 70.9 °F 62% 29.80 in 10.0 mi SSE 9.2 mph - N/A   Clear
8:15 PM 84.6 °F 89.4 °F 70.9 °F 63% 29.80 in 10.0 mi SSE 9.2 mph - N/A   Clear
8:35 PM 83.7 °F 88.3 °F 70.9 °F 65% 29.81 in 10.0 mi SSE 4.6 mph - N/A   Clear
8:55 PM 82.8 °F 87.2 °F 70.7 °F 67% 29.81 in 10.0 mi SSE 4.6 mph - N/A   Clear
9:15 PM 82.0 °F 86.1 °F 70.3 °F 68% 29.81 in 10.0 mi SSE 4.6 mph - N/A   Clear
9:35 PM 81.5 °F 84.9 °F 69.8 °F 67% 29.81 in 10.0 mi SSE 5.8 mph - N/A   Clear
9:55 PM 81.0 °F 85.1 °F 71.6 °F 73% 29.82 in 10.0 mi SSE 6.9 mph 17.3 mph N/A   Clear
10:15 PM 79.9 °F - 72.1 °F 77% 29.82 in 10.0 mi SSE 12.7 mph - N/A   Clear
10:35 PM 79.3 °F - 72.5 °F 79% 29.82 in 10.0 mi SSE 9.2 mph - N/A   Clear
10:55 PM 78.3 °F - 72.0 °F 81% 29.83 in 10.0 mi South 11.5 mph - N/A   Scattered Clouds
11:15 PM 77.7 °F - 71.6 °F 81% 29.83 in 10.0 mi South 10.4 mph - N/A   Scattered Clouds
11:35 PM 77.9 °F - 71.6 °F 81% 29.83 in 10.0 mi SSE 13.8 mph 19.6 mph N/A   Overcast
11:55 PM 77.5 °F - 71.6 °F 82% 29.83 in 10.0 mi South 11.5 mph 17.3 mph N/A   Overcast